Location: Unspecified
(35.7250°N, 0.0000°E)
Time: 08:30:55
(UTC+00:00)

PRISM - Visible Passes

Search period start: 17 July 2019 00:00
Search period end: 27 July 2019 00:00
Orbit: 565 x 589 km, 98.1° (Epoch: 17 July)

Date Brightness Start Highest point End Pass type
(mag) Time Alt. Az. Time Alt. Az. Time Alt. Az.
17 Jul ? 00:47:52 10° N 00:49:34 24° N 00:49:34 24° N visible
18 Jul ? 00:51:55 10° N 00:53:36 24° N 00:53:36 24° N visible
19 Jul ? 00:55:58 10° N 00:57:38 23° N 00:57:38 23° N visible
20 Jul ? 01:00:02 10° N 01:01:40 23° N 01:01:40 23° N visible
21 Jul ? 01:04:06 10° N 01:05:42 22° N 01:05:42 22° N visible
22 Jul ? 01:08:11 10° N 01:09:44 21° NNW 01:09:44 21° NNW visible
23 Jul ? 01:12:16 10° N 01:13:45 20° NNW 01:13:45 20° NNW visible
24 Jul ? 01:16:22 10° N 01:17:46 19° NNW 01:17:46 19° NNW visible
25 Jul ? 01:20:28 10° N 01:21:48 18° NNW 01:21:48 18° NNW visible
26 Jul ? 01:24:34 10° NNW 01:25:49 17° NNW 01:25:49 17° NNW visible
